#timestamp,LO_Frequency,Hit 
1502982015.2,286046998.5,N
1502982035.0,286046999.0,N
1502982035.9,286046999.0,N
1502982055.8,286047001.2,N
1502982075.6,286046998.3,N
1502982095.4,286046998.9,N
1502982115.3,286046998.8,N
1502982135.1,286046997.5,N
1502982136.0,286046997.5,N
1502982155.8,286046996.8,N
1502982175.6,286046997.8,N
1502982195.5,286046997.7,N
1502982215.3,286046997.6,N
1502982235.1,286046997.7,N
1502982255.9,286046995.3,P
1502982275.7,286046996.7,N
1502982295.5,286046999.1,N
1502982315.4,286046997.0,N
1502982335.2,286047001.1,N
1502982355.0,286046999.6,N
1502982355.9,286046999.6,N
1502982375.8,286046997.0,N
1502982395.6,286046997.0,N
1502982415.4,286046998.9,N
1502982435.3,286046997.4,N
1502982455.1,286046996.8,N
1502982456.0,286046996.8,N
1502982475.8,286046997.4,N
1502982495.7,286046997.3,N
1502982515.5,286046997.9,N
1502982535.3,286046995.2,P
1502982555.2,286046999.1,N
1502982575.9,286046999.3,N
1502982595.7,286046998.9,N
1502982615.6,286046996.7,N
1502982635.4,286046997.0,N
1502982655.2,286046998.3,N
1502982675.0,286047000.7,N
1502982676.0,286047000.7,N
1502982695.8,286046998.2,N
1502982715.6,286047000.3,N
1502982735.4,286047002.4,N
1502982755.3,286047000.7,N
1502982775.1,286047001.2,N
1502982795.8,286047000.3,N
1502982815.7,286047002.6,N
1502982835.5,286047000.9,N
1502982855.3,286046999.9,N
1502982875.2,286047000.1,N
1502982895.9,286047002.4,N
1502982915.7,286047004.0,N
1502982935.6,286047001.9,N
1502982955.4,286047000.5,N
1502982975.2,286047002.1,N
1502982995.0,286047002.1,N
1502982995.9,286047002.1,N
1502983015.8,286046999.7,N
1502983035.6,286047001.5,N
1502983055.4,286047002.4,N
1502983075.3,286047002.8,N
1502983095.1,286047001.9,N
1502983096.0,286047001.9,N
1502983115.8,286047001.6,N
1502983135.7,286047003.8,N
1502983155.5,286047001.9,N
1502983175.3,286047002.8,N
1502983195.2,286047001.1,N
1502983215.9,286047000.8,N
1502983235.7,286047000.6,N
1502983255.5,286047002.2,N
1502983275.4,286047004.3,P
1502983295.2,286047002.8,N
1502983315.1,286046996.5,P
1502983316.0,286046996.5,N
1502983335.8,286046998.6,N
1502983355.6,286046999.0,N
1502983375.4,286046996.9,N
1502983395.3,286046997.1,N
1502983415.1,286046998.9,N
1502983435.8,286046998.3,N
1502983455.7,286046996.5,N
1502983475.5,286046999.0,N
1502983495.3,286046999.5,N
1502983515.2,286046996.5,N
1502983535.9,286046999.5,N
1502983555.7,286046998.9,N
1502983575.6,286046997.3,N
1502983595.4,286046997.7,N
1502983615.2,286046996.8,N
1502983635.0,286046996.5,N
1502983635.9,286046996.5,N
1502983655.8,286046997.5,N
1502983675.6,286046997.6,N
1502983695.4,286046995.4,N
1502983715.3,286046999.5,N
1502983735.1,286046999.0,N
1502983755.8,286046999.1,N
1502983775.7,286046998.7,N
1502983795.5,286047000.7,N
1502983815.3,286047000.9,N
1502983835.2,286046998.9,N
1502983855.9,286046999.3,N
1502983875.7,286046999.1,N
1502983895.6,286046999.0,N
1502983915.4,286047000.2,N
1502983935.2,286046998.1,N
1502983955.0,286046999.6,N
1502983955.9,286046999.6,N
1502983975.8,286046999.1,N
1502983995.6,286046999.6,N
1502984015.4,286046996.9,N
1502984035.3,286046999.0,N
1502984055.1,286046999.4,N
1502984075.8,286046999.5,N
1502984095.7,286046998.9,N
1502984115.5,286046999.4,N
1502984135.3,286046996.7,N
1502984155.2,286046996.6,N
1502984175.9,286046999.4,N
1502984195.7,286046998.4,N
1502984215.5,286046998.8,N
1502984235.4,286047000.0,N
1502984255.2,286047000.3,N
1502984275.0,286047001.2,N
1502984275.9,286047001.2,N
1502984295.8,286046996.6,P
1502984315.6,286046999.0,N
1502984335.5,286046999.2,N
1502984355.3,286046999.1,N
1502984375.1,286046996.9,P
1502984395.9,286046999.6,N
1502984415.7,286047000.8,N
1502984435.5,286046996.9,N
1502984455.3,286047000.6,N
1502984475.2,286046998.7,N
1502984495.0,286047000.7,N
1502984495.9,286047000.7,N
1502984515.7,286047000.5,N
1502984535.6,286047000.9,N
1502984555.4,286046998.7,N
1502984575.2,286046999.7,N
1502984595.1,286047001.8,N
1502984596.0,286047001.8,N
1502984615.8,286047000.2,N
1502984635.6,286047002.3,N
1502984655.5,286046998.7,N
1502984675.3,286047001.2,N
1502984695.1,286046999.8,N
1502984715.9,286046999.2,N
1502984735.7,286047001.2,N
1502984755.5,286046998.7,N
1502984775.4,286046998.7,N
1502984795.2,286047000.9,N
1502984815.0,286046998.4,N
1502984815.9,286046998.4,N
1502984835.8,286047000.5,N
1502984855.6,286046998.8,N
1502984875.4,286046997.1,N
1502984895.2,286046998.8,N
1502984915.1,286047000.0,N
1502984916.0,286047000.0,N
1502984935.8,286047000.0,N
1502984955.6,286047000.8,N
1502984975.5,286046996.6,N
1502984995.3,286046994.9,P
1502985015.1,286046995.2,N
1502985035.9,286046997.9,N
1502985055.7,286046995.3,N
1502985075.5,286046995.6,N
1502985095.4,286046995.8,N
1502985115.2,286046997.5,N
1502985135.0,286046995.4,N
1502985135.9,286046995.4,N
1502985155.8,286046995.8,N
1502985175.6,286046997.1,N
1502985195.4,286046997.0,N
1502985215.3,286046999.6,N
1502985235.1,286046999.4,N
1502985236.0,286046999.4,N
1502985255.8,286046998.8,N
1502985275.7,286046995.4,N
1502985295.5,286046993.5,P
1502985315.3,286046998.1,N
1502985335.2,286046998.6,N
1502985355.9,286046998.1,N
1502985375.7,286046999.4,N
1502985395.6,286046999.1,N
1502985415.4,286046997.6,N
1502985435.2,286046998.2,N
1502985455.0,286047000.7,N
1502985455.9,286047000.7,N
1502985475.8,286046999.6,N
1502985495.6,286046999.5,N
1502985515.4,286046999.4,N
1502985535.3,286047000.4,N
1502985555.1,286047000.7,N
1502985556.0,286047000.7,N
1502985575.8,286046994.9,N
1502985595.7,286046995.5,N
